Year,Month,Day,Hour,Minute,Value (Times are PST for temperature in C)
2009,07,17,00,00,18.20
2009,07,17,00,01,18.20
2009,07,17,00,02,18.20
2009,07,17,00,03,18.20
2009,07,17,00,04,18.10
2009,07,17,00,05,18.10
2009,07,17,00,06,18.10
2009,07,17,00,07,18.10
2009,07,17,00,08,18.10
2009,07,17,00,09,18.10
2009,07,17,00,10,18.00
2009,07,17,00,11,17.90
2009,07,17,00,12,17.90
2009,07,17,00,13,17.90
2009,07,17,00,14,17.90
2009,07,17,00,15,17.90
2009,07,17,00,16,17.90
2009,07,17,00,17,17.90
2009,07,17,00,18,17.90
2009,07,17,00,19,17.90
2009,07,17,00,20,17.90
2009,07,17,00,21,17.90
2009,07,17,00,22,17.80
2009,07,17,00,23,17.80
2009,07,17,00,24,17.80
2009,07,17,00,25,17.70
2009,07,17,00,26,17.70
2009,07,17,00,27,17.70
2009,07,17,00,28,17.70
2009,07,17,00,29,17.60
2009,07,17,00,30,17.60
2009,07,17,00,31,17.60
2009,07,17,00,32,17.60
2009,07,17,00,33,17.60
2009,07,17,00,34,17.50
2009,07,17,00,35,17.50
2009,07,17,00,36,17.50
2009,07,17,00,37,17.40
2009,07,17,00,38,17.40
2009,07,17,00,39,17.40
2009,07,17,00,40,17.40
2009,07,17,00,41,17.30
2009,07,17,00,42,17.30
2009,07,17,00,43,17.30
2009,07,17,00,44,17.30
2009,07,17,00,45,17.30
2009,07,17,00,46,17.30
2009,07,17,00,47,17.30
2009,07,17,00,48,17.30
2009,07,17,00,49,17.30
2009,07,17,00,50,17.30
2009,07,17,00,51,17.30
2009,07,17,00,52,17.30
2009,07,17,00,53,17.30
2009,07,17,00,54,17.30
2009,07,17,00,55,17.20
2009,07,17,00,56,17.20
2009,07,17,00,57,17.20
2009,07,17,00,58,17.20
2009,07,17,00,59,17.20
2009,07,17,01,00,17.20
2009,07,17,01,01,17.20
2009,07,17,01,02,17.20
2009,07,17,01,03,17.20
2009,07,17,01,04,17.20
2009,07,17,01,05,17.10
2009,07,17,01,06,17.10
2009,07,17,01,07,17.10
2009,07,17,01,08,17.10
2009,07,17,01,09,17.10
2009,07,17,01,10,17.10
2009,07,17,01,11,17.10
2009,07,17,01,12,17.10
2009,07,17,01,13,17.10
2009,07,17,01,14,17.10
2009,07,17,01,15,17.20
2009,07,17,01,16,17.20
2009,07,17,01,17,17.20
2009,07,17,01,18,17.20
2009,07,17,01,19,17.20
2009,07,17,01,20,17.20
2009,07,17,01,21,17.20
2009,07,17,01,22,17.20
2009,07,17,01,23,17.20
2009,07,17,01,24,17.20
2009,07,17,01,25,17.10
2009,07,17,01,26,17.10
2009,07,17,01,27,17.10
2009,07,17,01,28,17.00
2009,07,17,01,29,17.00
2009,07,17,01,30,16.90
2009,07,17,01,31,16.90
2009,07,17,01,32,16.80
2009,07,17,01,33,16.80
2009,07,17,01,34,16.80
2009,07,17,01,35,16.80
2009,07,17,01,36,16.80
2009,07,17,01,37,16.70
2009,07,17,01,38,16.70
2009,07,17,01,39,16.70
2009,07,17,01,40,16.70
2009,07,17,01,41,16.70
2009,07,17,01,42,16.70
2009,07,17,01,43,16.70
2009,07,17,01,44,16.70
2009,07,17,01,45,16.70
2009,07,17,01,46,16.70
2009,07,17,01,47,16.70
2009,07,17,01,48,16.70
2009,07,17,01,49,16.70
2009,07,17,01,50,16.70
2009,07,17,01,51,16.70
2009,07,17,01,52,16.70
2009,07,17,01,53,16.70
2009,07,17,01,54,16.80
2009,07,17,01,55,16.80
2009,07,17,01,56,16.80
2009,07,17,01,57,16.80
2009,07,17,01,58,16.80
2009,07,17,01,59,16.90
2009,07,17,02,00,16.90
2009,07,17,02,01,16.90
2009,07,17,02,02,17.00
2009,07,17,02,03,17.00
2009,07,17,02,04,17.00
2009,07,17,02,05,17.10
2009,07,17,02,06,17.10
2009,07,17,02,07,17.20
2009,07,17,02,08,17.20
2009,07,17,02,09,17.20
2009,07,17,02,10,17.20
2009,07,17,02,11,17.20
2009,07,17,02,12,17.30
2009,07,17,02,13,17.30
2009,07,17,02,14,17.30
2009,07,17,02,15,17.30
2009,07,17,02,16,17.20
2009,07,17,02,17,17.20
2009,07,17,02,18,17.20
2009,07,17,02,19,17.20
2009,07,17,02,20,17.20
2009,07,17,02,21,17.20
2009,07,17,02,22,17.10
2009,07,17,02,23,17.10
2009,07,17,02,24,17.10
2009,07,17,02,25,17.00
2009,07,17,02,26,17.00
2009,07,17,02,27,17.00
2009,07,17,02,28,16.90
2009,07,17,02,29,16.90
2009,07,17,02,30,16.80
2009,07,17,02,31,16.80
2009,07,17,02,32,16.80
2009,07,17,02,33,16.80
2009,07,17,02,34,16.70
2009,07,17,02,35,16.70
2009,07,17,02,36,16.70
2009,07,17,02,37,16.70
2009,07,17,02,38,16.70
2009,07,17,02,39,16.70
2009,07,17,02,40,16.70
2009,07,17,02,41,16.70
2009,07,17,02,42,16.60
2009,07,17,02,43,16.60
2009,07,17,02,44,16.50
2009,07,17,02,45,16.40
2009,07,17,02,46,16.40
2009,07,17,02,47,16.40
2009,07,17,02,48,16.30
2009,07,17,02,49,16.30
2009,07,17,02,50,16.20
2009,07,17,02,51,16.20
2009,07,17,02,52,16.20
2009,07,17,02,53,16.10
2009,07,17,02,54,16.10
2009,07,17,02,55,16.10
2009,07,17,02,56,16.10
2009,07,17,02,57,16.10
2009,07,17,02,58,16.10
2009,07,17,02,59,16.00
2009,07,17,03,00,15.90
2009,07,17,03,01,15.90
2009,07,17,03,02,15.90
2009,07,17,03,03,15.90
2009,07,17,03,04,15.80
2009,07,17,03,05,15.80
2009,07,17,03,06,15.80
2009,07,17,03,07,15.80
2009,07,17,03,08,15.90
2009,07,17,03,09,15.90
2009,07,17,03,10,15.90
2009,07,17,03,11,15.90
2009,07,17,03,12,15.90
2009,07,17,03,13,15.90
2009,07,17,03,14,16.00
2009,07,17,03,15,16.10
2009,07,17,03,16,16.10
2009,07,17,03,17,16.10
2009,07,17,03,18,16.10
2009,07,17,03,19,16.10
2009,07,17,03,20,16.10
2009,07,17,03,21,16.10
2009,07,17,03,22,16.10
2009,07,17,03,23,16.10
2009,07,17,03,24,16.10
2009,07,17,03,25,16.20
2009,07,17,03,26,16.20
2009,07,17,03,27,16.20
2009,07,17,03,28,16.20
2009,07,17,03,29,16.30
2009,07,17,03,30,16.30
2009,07,17,03,31,16.40
2009,07,17,03,32,16.40
2009,07,17,03,33,16.40
2009,07,17,03,34,16.40
2009,07,17,03,35,16.30
2009,07,17,03,36,16.30
2009,07,17,03,37,16.20
2009,07,17,03,38,16.20
2009,07,17,03,39,16.10
2009,07,17,03,40,16.10
2009,07,17,03,41,16.10
2009,07,17,03,42,16.10
2009,07,17,03,43,16.00
2009,07,17,03,44,15.90
2009,07,17,03,45,15.90
2009,07,17,03,46,15.80
2009,07,17,03,47,15.80
2009,07,17,03,48,15.80
2009,07,17,03,49,15.70
2009,07,17,03,50,15.70
2009,07,17,03,51,15.60
2009,07,17,03,52,15.60
2009,07,17,03,53,15.50
2009,07,17,03,54,15.50
2009,07,17,03,55,15.40
2009,07,17,03,56,15.40
2009,07,17,03,57,15.30
2009,07,17,03,58,15.30
2009,07,17,03,59,15.30
2009,07,17,04,00,15.30
2009,07,17,04,01,15.30
2009,07,17,04,02,15.20
2009,07,17,04,03,15.20
2009,07,17,04,04,15.20
2009,07,17,04,05,15.20
2009,07,17,04,06,15.20
2009,07,17,04,07,15.20
2009,07,17,04,08,15.10
2009,07,17,04,09,15.10
2009,07,17,04,10,15.10
2009,07,17,04,11,15.10
2009,07,17,04,12,15.10
2009,07,17,04,13,15.10
2009,07,17,04,14,15.10
2009,07,17,04,15,15.10
2009,07,17,04,16,15.10
2009,07,17,04,17,15.10
2009,07,17,04,18,15.10
2009,07,17,04,19,15.10
2009,07,17,04,20,15.10
2009,07,17,04,21,15.10
2009,07,17,04,22,15.10
2009,07,17,04,23,15.10
2009,07,17,04,24,15.10
2009,07,17,04,25,15.10
2009,07,17,04,26,15.10
2009,07,17,04,27,15.10
2009,07,17,04,28,15.10
2009,07,17,04,29,15.10
2009,07,17,04,30,15.10
2009,07,17,04,31,15.00
2009,07,17,04,32,15.00
2009,07,17,04,33,15.00
2009,07,17,04,34,15.00
2009,07,17,04,35,14.90
2009,07,17,04,36,14.90
2009,07,17,04,37,14.90
2009,07,17,04,38,14.90
2009,07,17,04,39,14.80
2009,07,17,04,40,14.80
2009,07,17,04,41,14.80
2009,07,17,04,42,14.80
2009,07,17,04,43,14.80
2009,07,17,04,44,14.80
2009,07,17,04,45,14.80
2009,07,17,04,46,14.80
2009,07,17,04,47,14.70
2009,07,17,04,48,14.70
2009,07,17,04,49,14.70
2009,07,17,04,50,14.70
2009,07,17,04,51,14.70
2009,07,17,04,52,14.60
2009,07,17,04,53,14.60
2009,07,17,04,54,14.60
2009,07,17,04,55,14.60
2009,07,17,04,56,14.60
2009,07,17,04,57,14.60
2009,07,17,04,58,14.60
2009,07,17,04,59,14.60
2009,07,17,05,00,14.60
2009,07,17,05,01,14.50
2009,07,17,05,02,14.50
2009,07,17,05,03,14.50
2009,07,17,05,04,14.50
2009,07,17,05,05,14.50
2009,07,17,05,06,14.50
2009,07,17,05,07,14.50
2009,07,17,05,08,14.50
2009,07,17,05,09,14.50
2009,07,17,05,10,14.50
2009,07,17,05,11,14.50
2009,07,17,05,12,14.50
2009,07,17,05,13,14.50
2009,07,17,05,14,14.50
2009,07,17,05,15,14.50
2009,07,17,05,16,14.50
2009,07,17,05,17,14.50
2009,07,17,05,18,14.50
2009,07,17,05,19,14.50
2009,07,17,05,20,14.50
2009,07,17,05,21,14.40
2009,07,17,05,22,14.40
2009,07,17,05,23,14.40
2009,07,17,05,24,14.40
2009,07,17,05,25,14.40
2009,07,17,05,26,14.30
2009,07,17,05,27,14.30
2009,07,17,05,28,14.30
2009,07,17,05,29,14.20
2009,07,17,05,30,14.20
2009,07,17,05,31,14.20
2009,07,17,05,32,14.20
2009,07,17,05,33,14.20
2009,07,17,05,34,14.20
2009,07,17,05,35,14.20
2009,07,17,05,36,14.20
2009,07,17,05,37,14.20
2009,07,17,05,38,14.20
2009,07,17,05,39,14.20
2009,07,17,05,40,14.20
2009,07,17,05,41,14.20
2009,07,17,05,42,14.20
2009,07,17,05,43,14.20
2009,07,17,05,44,14.20
2009,07,17,05,45,14.20
2009,07,17,05,46,14.20
2009,07,17,05,47,14.20
2009,07,17,05,48,14.20
2009,07,17,05,49,14.20
2009,07,17,05,50,14.20
2009,07,17,05,51,14.20
2009,07,17,05,52,14.20
2009,07,17,05,53,14.20
2009,07,17,05,54,14.20
2009,07,17,05,55,14.20
2009,07,17,05,56,14.20
2009,07,17,05,57,14.20
2009,07,17,05,58,14.20
2009,07,17,05,59,14.20
2009,07,17,06,00,14.20
2009,07,17,06,01,14.20
2009,07,17,06,02,14.20
2009,07,17,06,03,14.20
2009,07,17,06,04,14.20
2009,07,17,06,05,14.20
2009,07,17,06,06,14.20
2009,07,17,06,07,14.20
2009,07,17,06,08,14.30
2009,07,17,06,09,14.30
2009,07,17,06,10,14.30
2009,07,17,06,11,14.30
2009,07,17,06,12,14.40
2009,07,17,06,13,14.40
2009,07,17,06,14,14.40
2009,07,17,06,15,14.50
2009,07,17,06,16,14.50
2009,07,17,06,17,14.50
2009,07,17,06,18,14.60
2009,07,17,06,19,14.60
2009,07,17,06,20,14.60
2009,07,17,06,21,14.70
2009,07,17,06,22,14.70
2009,07,17,06,23,14.80
2009,07,17,06,24,14.80
2009,07,17,06,25,14.80
2009,07,17,06,26,14.80
2009,07,17,06,27,14.80
2009,07,17,06,28,14.90
2009,07,17,06,29,14.90
2009,07,17,06,30,14.90
2009,07,17,06,31,15.00
2009,07,17,06,32,15.00
2009,07,17,06,33,15.00
2009,07,17,06,34,15.00
2009,07,17,06,35,15.10
2009,07,17,06,36,15.10
2009,07,17,06,37,15.20
2009,07,17,06,38,15.20
2009,07,17,06,39,15.20
2009,07,17,06,40,15.30
2009,07,17,06,41,15.30
2009,07,17,06,42,15.30
2009,07,17,06,43,15.30
2009,07,17,06,44,15.30
2009,07,17,06,45,15.30
2009,07,17,06,46,15.30
2009,07,17,06,47,15.30
2009,07,17,06,48,15.30
2009,07,17,06,49,15.40
2009,07,17,06,50,15.40
2009,07,17,06,51,15.50
2009,07,17,06,52,15.50
2009,07,17,06,53,15.60
2009,07,17,06,54,15.60
2009,07,17,06,55,15.70
2009,07,17,06,56,15.70
2009,07,17,06,57,15.80
2009,07,17,06,58,15.80
2009,07,17,06,59,15.80
2009,07,17,07,00,15.90
2009,07,17,07,01,15.90
2009,07,17,07,02,16.00
2009,07,17,07,03,16.10
2009,07,17,07,04,16.10
2009,07,17,07,05,16.10
2009,07,17,07,06,16.20
2009,07,17,07,07,16.20
2009,07,17,07,08,16.30
2009,07,17,07,09,16.30
2009,07,17,07,10,16.40
2009,07,17,07,11,16.40
2009,07,17,07,12,16.50
2009,07,17,07,13,16.60
2009,07,17,07,14,16.70
2009,07,17,07,15,16.70
2009,07,17,07,16,16.70
2009,07,17,07,17,16.80
2009,07,17,07,18,16.80
2009,07,17,07,19,16.90
2009,07,17,07,20,17.00
2009,07,17,07,21,17.00
2009,07,17,07,22,17.10
2009,07,17,07,23,17.10
2009,07,17,07,24,17.20
2009,07,17,07,25,17.20
2009,07,17,07,26,17.30
2009,07,17,07,27,17.30
2009,07,17,07,28,17.30
2009,07,17,07,29,17.30
2009,07,17,07,30,17.40
2009,07,17,07,31,17.40
2009,07,17,07,32,17.50
2009,07,17,07,33,17.50
2009,07,17,07,34,17.60
2009,07,17,07,35,17.60
2009,07,17,07,36,17.70
2009,07,17,07,37,17.70
2009,07,17,07,38,17.80
2009,07,17,07,39,17.80
2009,07,17,07,40,17.90
2009,07,17,07,41,17.90
2009,07,17,07,42,17.90
2009,07,17,07,43,17.90
2009,07,17,07,44,17.90
2009,07,17,07,45,18.10
2009,07,17,07,46,18.10
2009,07,17,07,47,18.10
2009,07,17,07,48,18.20
2009,07,17,07,49,18.10
2009,07,17,07,50,18.20
2009,07,17,07,51,18.20
2009,07,17,07,52,18.20
2009,07,17,07,53,18.20
2009,07,17,07,54,18.20
2009,07,17,07,55,18.20
2009,07,17,07,56,18.30
2009,07,17,07,57,18.30
2009,07,17,07,58,18.40
2009,07,17,07,59,18.50
2009,07,17,08,00,18.50
2009,07,17,08,01,18.60
2009,07,17,08,02,18.60
2009,07,17,08,03,18.70
2009,07,17,08,04,18.80
2009,07,17,08,05,18.80
2009,07,17,08,06,18.90
2009,07,17,08,07,18.90
2009,07,17,08,08,18.90
2009,07,17,08,09,18.90
2009,07,17,08,10,18.90
2009,07,17,08,11,19.10
2009,07,17,08,12,19.10
2009,07,17,08,13,19.10
2009,07,17,08,14,19.20
2009,07,17,08,15,19.20
2009,07,17,08,16,19.30
2009,07,17,08,17,19.30
2009,07,17,08,18,19.30
2009,07,17,08,19,19.40
2009,07,17,08,20,19.40
2009,07,17,08,21,19.50
2009,07,17,08,22,19.50
2009,07,17,08,23,19.60
2009,07,17,08,24,19.60
2009,07,17,08,25,19.70
2009,07,17,08,26,19.70
2009,07,17,08,27,19.70
2009,07,17,08,28,19.70
2009,07,17,08,29,19.80
2009,07,17,08,30,19.80
2009,07,17,08,31,19.90
2009,07,17,08,32,19.90
2009,07,17,08,33,19.90
2009,07,17,08,34,20.00
2009,07,17,08,35,20.10
2009,07,17,08,36,20.10
2009,07,17,08,37,20.20
2009,07,17,08,38,20.20
2009,07,17,08,39,20.20
2009,07,17,08,40,20.20
2009,07,17,08,41,20.30
2009,07,17,08,42,20.40
2009,07,17,08,43,20.40
2009,07,17,08,44,20.50
2009,07,17,08,45,20.50
2009,07,17,08,46,20.60
2009,07,17,08,47,20.60
2009,07,17,08,48,20.70
2009,07,17,08,49,20.80
2009,07,17,08,50,20.90
2009,07,17,08,51,21.00
2009,07,17,08,52,21.10
2009,07,17,08,53,21.30
2009,07,17,08,54,21.30
2009,07,17,08,55,21.50
2009,07,17,08,56,21.60
2009,07,17,08,57,21.70
2009,07,17,08,58,21.70
2009,07,17,08,59,21.80
2009,07,17,09,00,21.90
2009,07,17,09,01,21.90
2009,07,17,09,02,21.70
2009,07,17,09,03,21.50
2009,07,17,09,04,21.40
2009,07,17,09,05,21.30
2009,07,17,09,06,21.30
2009,07,17,09,07,21.30
2009,07,17,09,08,21.20
2009,07,17,09,09,21.10
2009,07,17,09,10,21.00
2009,07,17,09,11,20.80
2009,07,17,09,12,20.70
2009,07,17,09,13,20.50
2009,07,17,09,14,20.50
2009,07,17,09,15,20.40
2009,07,17,09,16,20.40
2009,07,17,09,17,20.50
2009,07,17,09,18,20.50
2009,07,17,09,19,20.40
2009,07,17,09,20,20.30
2009,07,17,09,21,20.20
2009,07,17,09,22,20.10
2009,07,17,09,23,20.10
2009,07,17,09,24,20.10
2009,07,17,09,25,20.00
2009,07,17,09,26,20.00
2009,07,17,09,27,20.10
2009,07,17,09,28,20.00
2009,07,17,09,29,19.90
2009,07,17,09,30,19.90
2009,07,17,09,31,19.90
2009,07,17,09,32,19.90
2009,07,17,09,33,19.80
2009,07,17,09,34,19.80
2009,07,17,09,35,19.80
2009,07,17,09,36,19.80
2009,07,17,09,37,19.80
2009,07,17,09,38,19.80
2009,07,17,09,39,19.90
2009,07,17,09,40,19.90
2009,07,17,09,41,19.90
2009,07,17,09,42,19.90
2009,07,17,09,43,19.80
2009,07,17,09,44,19.80
2009,07,17,09,45,19.90
2009,07,17,09,46,20.00
2009,07,17,09,47,20.10
2009,07,17,09,48,20.20
2009,07,17,09,49,20.20
2009,07,17,09,50,20.30
2009,07,17,09,51,20.40
2009,07,17,09,52,20.50
2009,07,17,09,53,20.60
2009,07,17,09,54,20.70
2009,07,17,09,55,20.70
2009,07,17,09,56,20.70
2009,07,17,09,57,20.70
2009,07,17,09,58,20.80
2009,07,17,09,59,20.90
2009,07,17,10,00,21.00
2009,07,17,10,01,21.10
2009,07,17,10,02,21.30
2009,07,17,10,03,21.40
2009,07,17,10,04,21.60
2009,07,17,10,05,21.70
2009,07,17,10,06,21.80
2009,07,17,10,07,21.90
2009,07,17,10,08,22.10
2009,07,17,10,09,22.20
2009,07,17,10,10,22.30
2009,07,17,10,11,22.30
2009,07,17,10,12,22.30
2009,07,17,10,13,22.30
2009,07,17,10,14,22.40
2009,07,17,10,15,22.50
2009,07,17,10,16,22.60
2009,07,17,10,17,22.60
2009,07,17,10,18,22.60
2009,07,17,10,19,22.60
2009,07,17,10,20,22.60
2009,07,17,10,21,22.50
2009,07,17,10,22,22.50
2009,07,17,10,23,22.40
2009,07,17,10,24,22.40
2009,07,17,10,25,22.40
2009,07,17,10,26,22.50
2009,07,17,10,27,22.50
2009,07,17,10,28,22.60
2009,07,17,10,29,22.70
2009,07,17,10,30,22.70
2009,07,17,10,31,22.70
2009,07,17,10,32,22.60
2009,07,17,10,33,22.60
2009,07,17,10,34,22.50
2009,07,17,10,35,22.50
2009,07,17,10,36,22.50
2009,07,17,10,37,22.50
2009,07,17,10,38,22.50
2009,07,17,10,39,22.50
2009,07,17,10,40,22.50
2009,07,17,10,41,22.50
2009,07,17,10,42,22.40
2009,07,17,10,43,22.40
2009,07,17,10,44,22.40
2009,07,17,10,45,22.40
2009,07,17,10,46,22.50
2009,07,17,10,47,22.50
2009,07,17,10,48,22.50
2009,07,17,10,49,22.70
2009,07,17,10,50,22.70
2009,07,17,10,51,22.70
2009,07,17,10,52,22.70
2009,07,17,10,53,22.60
2009,07,17,10,54,22.60
2009,07,17,10,55,22.50
2009,07,17,10,56,22.60
2009,07,17,10,57,22.60
2009,07,17,10,58,22.60
2009,07,17,10,59,22.60
2009,07,17,11,00,22.50
2009,07,17,11,01,22.40
2009,07,17,11,02,22.30
2009,07,17,11,03,22.20
2009,07,17,11,04,22.10
2009,07,17,11,05,22.00
2009,07,17,11,06,21.90
2009,07,17,11,07,21.90
2009,07,17,11,08,21.80
2009,07,17,11,09,21.80
2009,07,17,11,10,21.80
2009,07,17,11,11,21.90
2009,07,17,11,12,21.90
2009,07,17,11,13,22.00
2009,07,17,11,14,22.10
2009,07,17,11,15,22.20
2009,07,17,11,16,22.30
2009,07,17,11,17,22.30
2009,07,17,11,18,22.40
2009,07,17,11,19,22.40
2009,07,17,11,20,22.40
2009,07,17,11,21,22.50
2009,07,17,11,22,22.50
2009,07,17,11,23,22.50
2009,07,17,11,24,22.60
2009,07,17,11,25,22.50
2009,07,17,11,26,22.60
2009,07,17,11,27,22.60
2009,07,17,11,28,22.60
2009,07,17,11,29,22.70
2009,07,17,11,30,22.70
2009,07,17,11,31,22.80
2009,07,17,11,32,22.90
2009,07,17,11,33,22.90
2009,07,17,11,34,22.90
2009,07,17,11,35,23.00
2009,07,17,11,36,23.10
2009,07,17,11,37,23.10
2009,07,17,11,38,23.10
2009,07,17,11,39,23.20
2009,07,17,11,40,23.20
2009,07,17,11,41,23.20
2009,07,17,11,42,23.20
2009,07,17,11,43,23.30
2009,07,17,11,44,23.30
2009,07,17,11,45,23.30
2009,07,17,11,46,23.30
2009,07,17,11,47,23.30
2009,07,17,11,48,23.30
2009,07,17,11,49,23.40
2009,07,17,11,50,23.60
2009,07,17,11,51,23.70
2009,07,17,11,52,23.70
2009,07,17,11,53,23.60
2009,07,17,11,54,23.70
2009,07,17,11,55,23.70
2009,07,17,11,56,23.80
2009,07,17,11,57,23.80
2009,07,17,11,58,23.70
2009,07,17,11,59,23.70
2009,07,17,12,00,23.70
2009,07,17,12,01,23.70
2009,07,17,12,02,23.70
2009,07,17,12,03,23.70
2009,07,17,12,04,23.70
2009,07,17,12,05,23.70
2009,07,17,12,06,23.70
2009,07,17,12,07,23.70
2009,07,17,12,08,23.80
2009,07,17,12,09,23.90
2009,07,17,12,10,24.00
2009,07,17,12,11,24.10
2009,07,17,12,12,24.10
2009,07,17,12,13,24.10
2009,07,17,12,14,24.10
2009,07,17,12,15,24.10
2009,07,17,12,16,24.10
2009,07,17,12,17,23.90
2009,07,17,12,18,23.90
2009,07,17,12,19,23.80
2009,07,17,12,20,23.80
2009,07,17,12,21,23.70
2009,07,17,12,22,23.60
2009,07,17,12,23,23.60
2009,07,17,12,24,23.60
2009,07,17,12,25,23.60
2009,07,17,12,26,23.60
2009,07,17,12,27,23.70
2009,07,17,12,28,23.70
2009,07,17,12,29,23.60
2009,07,17,12,30,23.60
2009,07,17,12,31,23.60
2009,07,17,12,32,23.60
2009,07,17,12,33,23.60
2009,07,17,12,34,23.60
2009,07,17,12,35,23.60
2009,07,17,12,36,23.70
2009,07,17,12,37,23.70
2009,07,17,12,38,23.70
2009,07,17,12,39,23.70
2009,07,17,12,40,23.70
2009,07,17,12,41,23.70
2009,07,17,12,42,23.70
2009,07,17,12,43,23.80
2009,07,17,12,44,23.90
2009,07,17,12,45,24.00
2009,07,17,12,46,24.10
2009,07,17,12,47,24.10
2009,07,17,12,48,24.00
2009,07,17,12,49,23.90
2009,07,17,12,50,23.90
2009,07,17,12,51,23.90
2009,07,17,12,52,24.00
2009,07,17,12,53,24.10
2009,07,17,12,54,24.10
2009,07,17,12,55,24.30
2009,07,17,12,56,24.30
2009,07,17,12,57,24.40
2009,07,17,12,58,24.30
2009,07,17,12,59,24.40
2009,07,17,13,00,24.40
2009,07,17,13,01,24.30
2009,07,17,13,02,24.20
2009,07,17,13,03,24.20
2009,07,17,13,04,24.10
2009,07,17,13,05,24.10
2009,07,17,13,06,24.10
2009,07,17,13,07,24.10
2009,07,17,13,08,24.10
2009,07,17,13,09,24.20
2009,07,17,13,10,24.20
2009,07,17,13,11,24.40
2009,07,17,13,12,24.50
2009,07,17,13,13,24.50
2009,07,17,13,14,24.60
2009,07,17,13,15,24.70
2009,07,17,13,16,24.70
2009,07,17,13,17,24.70
2009,07,17,13,18,24.60
2009,07,17,13,19,24.40
2009,07,17,13,20,24.30
2009,07,17,13,21,24.20
2009,07,17,13,22,24.10
2009,07,17,13,23,24.00
2009,07,17,13,24,23.90
2009,07,17,13,25,23.80
2009,07,17,13,26,23.70
2009,07,17,13,27,23.80
2009,07,17,13,28,23.90
2009,07,17,13,29,23.90
2009,07,17,13,30,23.90
2009,07,17,13,31,23.80
2009,07,17,13,32,23.70
2009,07,17,13,33,23.80
2009,07,17,13,34,23.90
2009,07,17,13,35,23.90
2009,07,17,13,36,23.80
2009,07,17,13,37,23.90
2009,07,17,13,38,24.10
2009,07,17,13,39,24.10
2009,07,17,13,40,24.10
2009,07,17,13,41,24.10
2009,07,17,13,42,24.10
2009,07,17,13,43,24.10
2009,07,17,13,44,24.10
2009,07,17,13,45,24.10
2009,07,17,13,46,24.10
2009,07,17,13,47,23.90
2009,07,17,13,48,24.10
2009,07,17,13,49,24.10
2009,07,17,13,50,24.10
2009,07,17,13,51,24.10
2009,07,17,13,52,24.10
2009,07,17,13,53,24.00
2009,07,17,13,54,23.90
2009,07,17,13,55,23.90
2009,07,17,13,56,23.90
2009,07,17,13,57,23.90
2009,07,17,13,58,23.90
2009,07,17,13,59,23.90
2009,07,17,14,00,23.90
2009,07,17,14,01,23.80
2009,07,17,14,02,23.80
2009,07,17,14,03,23.80
2009,07,17,14,04,23.90
2009,07,17,14,05,23.80
2009,07,17,14,06,23.80
2009,07,17,14,07,23.70
2009,07,17,14,08,23.70
2009,07,17,14,09,23.80
2009,07,17,14,10,23.90
2009,07,17,14,11,24.00
2009,07,17,14,12,24.10
2009,07,17,14,13,24.10
2009,07,17,14,14,24.20
2009,07,17,14,15,24.20
2009,07,17,14,16,24.30
2009,07,17,14,17,24.40
2009,07,17,14,18,24.50
2009,07,17,14,19,24.50
2009,07,17,14,20,24.50
2009,07,17,14,21,24.60
2009,07,17,14,22,24.70
2009,07,17,14,23,24.70
2009,07,17,14,24,24.80
2009,07,17,14,25,25.10
2009,07,17,14,26,25.20
2009,07,17,14,27,25.30
2009,07,17,14,28,25.40
2009,07,17,14,29,25.50
2009,07,17,14,30,25.60
2009,07,17,14,31,25.70
2009,07,17,14,32,25.80
2009,07,17,14,33,25.90
2009,07,17,14,34,25.90
2009,07,17,14,35,26.00
2009,07,17,14,36,26.10
2009,07,17,14,37,26.30
2009,07,17,14,38,26.50
2009,07,17,14,39,26.70
2009,07,17,14,40,26.90
2009,07,17,14,41,26.90
2009,07,17,14,42,27.10
2009,07,17,14,43,27.20
2009,07,17,14,44,27.20
2009,07,17,14,45,27.20
2009,07,17,14,46,27.20
2009,07,17,14,47,27.20
2009,07,17,14,48,27.20
2009,07,17,14,49,27.20
2009,07,17,14,50,27.30
2009,07,17,14,51,27.30
2009,07,17,14,52,27.30
2009,07,17,14,53,27.50
2009,07,17,14,54,27.60
2009,07,17,14,55,27.70
2009,07,17,14,56,27.90
2009,07,17,14,57,27.90
2009,07,17,14,58,28.00
2009,07,17,14,59,28.00
2009,07,17,15,00,28.00
2009,07,17,15,01,28.00
2009,07,17,15,02,28.00
2009,07,17,15,03,28.00
2009,07,17,15,04,28.00
2009,07,17,15,05,28.10
2009,07,17,15,06,28.10
2009,07,17,15,07,28.10
2009,07,17,15,08,28.20
2009,07,17,15,09,28.20
2009,07,17,15,10,28.20
2009,07,17,15,11,28.20
2009,07,17,15,12,28.30
2009,07,17,15,13,28.30
2009,07,17,15,14,28.30
2009,07,17,15,15,28.30
2009,07,17,15,16,28.20
2009,07,17,15,17,28.20
2009,07,17,15,18,28.20
2009,07,17,15,19,28.20
2009,07,17,15,20,28.20
2009,07,17,15,21,28.20
2009,07,17,15,22,28.30
2009,07,17,15,23,28.40
2009,07,17,15,24,28.40
2009,07,17,15,25,28.30
2009,07,17,15,26,28.30
2009,07,17,15,27,28.20
2009,07,17,15,28,28.30
2009,07,17,15,29,28.30
2009,07,17,15,30,28.20
2009,07,17,15,31,28.30
2009,07,17,15,32,28.30
2009,07,17,15,33,28.30
2009,07,17,15,34,28.20
2009,07,17,15,35,28.20
2009,07,17,15,36,28.20
2009,07,17,15,37,28.20
2009,07,17,15,38,28.30
2009,07,17,15,39,28.30
2009,07,17,15,40,28.30
2009,07,17,15,41,28.30
2009,07,17,15,42,28.30
2009,07,17,15,43,28.30
2009,07,17,15,44,28.30
2009,07,17,15,45,28.20
2009,07,17,15,46,28.20
2009,07,17,15,47,28.20
2009,07,17,15,48,28.20
2009,07,17,15,49,28.10
2009,07,17,15,50,28.10
2009,07,17,15,51,28.20
2009,07,17,15,52,28.20
2009,07,17,15,53,28.10
2009,07,17,15,54,28.10
2009,07,17,15,55,28.10
2009,07,17,15,56,28.10
2009,07,17,15,57,28.20
2009,07,17,15,58,28.20
2009,07,17,15,59,28.20
2009,07,17,16,00,28.20
2009,07,17,16,01,28.10
2009,07,17,16,02,28.10
2009,07,17,16,03,28.10
2009,07,17,16,04,28.10
2009,07,17,16,05,28.20
2009,07,17,16,06,28.20
2009,07,17,16,07,28.30
2009,07,17,16,08,28.40
2009,07,17,16,09,28.40
2009,07,17,16,10,28.30
2009,07,17,16,11,28.20
2009,07,17,16,12,28.10
2009,07,17,16,13,28.10
2009,07,17,16,14,28.10
2009,07,17,16,15,28.00
2009,07,17,16,16,28.10
2009,07,17,16,17,28.10
2009,07,17,16,18,28.10
2009,07,17,16,19,28.10
2009,07,17,16,20,28.10
2009,07,17,16,21,28.00
2009,07,17,16,22,27.90
2009,07,17,16,23,27.90
2009,07,17,16,24,27.90
2009,07,17,16,25,27.90
2009,07,17,16,26,27.90
2009,07,17,16,27,27.80
2009,07,17,16,28,27.80
2009,07,17,16,29,27.70
2009,07,17,16,30,27.60
2009,07,17,16,31,27.50
2009,07,17,16,32,27.40
2009,07,17,16,33,27.30
2009,07,17,16,34,27.30
2009,07,17,16,35,27.40
2009,07,17,16,36,27.40
2009,07,17,16,37,27.60
2009,07,17,16,38,27.70
2009,07,17,16,39,27.80
2009,07,17,16,40,27.90
2009,07,17,16,41,28.00
2009,07,17,16,42,28.00
2009,07,17,16,43,28.00
2009,07,17,16,44,28.00
2009,07,17,16,45,27.90
2009,07,17,16,46,27.90
2009,07,17,16,47,27.80
2009,07,17,16,48,27.80
2009,07,17,16,49,27.70
2009,07,17,16,50,27.70
2009,07,17,16,51,27.80
2009,07,17,16,52,27.80
2009,07,17,16,53,27.80
2009,07,17,16,54,27.90
2009,07,17,16,55,28.00
2009,07,17,16,56,28.00
2009,07,17,16,57,28.10
2009,07,17,16,58,28.20
2009,07,17,16,59,28.30
2009,07,17,17,00,28.30
2009,07,17,17,01,28.40
2009,07,17,17,02,28.40
2009,07,17,17,03,28.40
2009,07,17,17,04,28.40
2009,07,17,17,05,28.30
2009,07,17,17,06,28.30
2009,07,17,17,07,28.30
2009,07,17,17,08,28.20
2009,07,17,17,09,28.20
2009,07,17,17,10,28.20
2009,07,17,17,11,28.10
2009,07,17,17,12,28.00
2009,07,17,17,13,28.00
2009,07,17,17,14,28.00
2009,07,17,17,15,28.00
2009,07,17,17,16,28.00
2009,07,17,17,17,28.10
2009,07,17,17,18,28.10
2009,07,17,17,19,28.10